Location: Treviso
(45.6669°N, 12.2430°E)
Time: 18:25:07
(UTC+01:00)

ISS - Visible Passes

Search period start: 21 November 2017 00:00
Search period end: 01 December 2017 00:00
Orbit: 402 x 407 km, 51.6° (Epoch: 22 November)

Date Brightness Start Highest point End Pass type
(mag) Time Alt. Az. Time Alt. Az. Time Alt. Az.
26 Nov -1.4 18:24:12 10° S 18:25:06 14° SSE 18:25:06 14° SSE visible
27 Nov -1.1 19:07:01 10° SW 19:07:52 17° SW 19:07:52 17° SW visible
28 Nov -3.0 18:14:57 10° SSW 18:17:52 36° SSE 18:17:52 36° SSE visible
29 Nov -2.1 17:23:14 10° S 17:25:46 21° SE 17:27:47 13° E visible
29 Nov -1.7 18:58:43 10° WSW 19:00:26 28° W 19:00:26 28° W visible
30 Nov -3.9 18:06:19 10° SW 18:09:36 77° SSE 18:10:16 52° ENE visible
